O3B FM15 (43231 NORAD) Tracking and Keplerian Element Data

This shows tracking and keplerian element data for the satellite.

Feedback or suggestion? Click here.




ElementValue
Catalog43231
NameO3B FM15
Epoch Orbit8296
Epoch Day268.6370064
Epoch Year2022
RAAN9.8717
Inclination0.0486
Eccentricity0.0002926
Argument of Perigee177.4151
Mean Anonmoly172.7134
Mean Motion5.00116025
Decay Rate-1.7E-07
L11 43231U 18024A 22268.63700640 -.00000017 00000+0 00000+0 0 9991
L22 43231 0.0486 9.8717 0002926 177.4151 172.7134 5.00116025 82960

Live tracking and technical data element details for O3B FM15 (NORAD 43231). O3B FM15 can be tracked NOW for your location showing map with azimuth and elevation plus other details from your city location.

Track the satellite on the map from your city or location and see movement details for azimuth, elevation, latitude, longitude, range, height, and movement on the map or in text.







IsCatalogInMostPopularTable: catalog: 43231, numindb: 601
Update: records affected: 1



GetName: 43231 O3B FM15

Hit Count: updated at: Wed, 05 Oct 2022 08:16:48 GMT